User: anonymous   Login
Location: Unspecified
(0.0000°N, 0.0000°E)
Time: 08:58:36
(UTC+00:00)
Language:

Cosmos 1383 - Orbit

View from above orbital plane
View from above orbital plane
View from above satellite
View from above satellite

Ground track
Ground track

The orbit data is extracted from the following two-line orbital elements,

1 13301U 82066A   18200.49565652 +.00000032 +00000-0 +20396-4 0  9992
2 13301 082.9331 335.2530 0026278 313.7788 111.5791 13.68666296800410
Epoch (UTC): 19 July 2018 11:53:44
Eccentricity: 0.0026278
inclination: 82.9331°
perigee height: 985 km
apogee height: 1024 km
right ascension of ascending node: 335.2530°
argument of perigee: 313.7788°
revolutions per day: 13.68666296
mean anomaly at epoch: 111.5791°
orbit number at epoch: 80041

The dashed part of the orbit path shows where the satellite is in the earth's shadow,  

DLR